Weather History for KDMO - July, 2013

Change the Weather History Date:

Tuesday, July 9, 2013

  Actual Average Record
Temperature  
Mean Temperature 85 °F 79 °F  
Max Temperature 95 °F 89 °F 102 °F (1980)
Min Temperature 75 °F 69 °F 54 °F (1952)
Degree Days  
Heating Degree Days 0 0  
Month to date heating degree days 0 0  
Since 1 June heating degree days 9 6  
Since 1 July heating degree days 0 0  
Cooling Degree Days 20 14  
Month to date cooling degree days 104 123  
Year to date cooling degree days 559 566  
Since 1 June cooling degree days 411 427  
Growing Degree Days 35 (Base 50)    
Moisture  
Dew Point 71 °F    
Average Humidity 64    
Maximum Humidity 82    
Minimum Humidity 46    
Precipitation  
Precipitation 0.00 in 0.14 in 1.64 in (1965)
Month to date precipitation 0.43 1.18  
Year to date precipitation 25.84 21.42  
Sea Level Pressure  
Sea Level Pressure 29.96 in    
Wind  
Wind Speed 11 mph (SSW)    
Max Wind Speed 18 mph    
Max Gust Speed 25 mph    
Visibility 10 miles    
Events      
T = Trace of Precipitation, MM = Missing Value Source: NWS Daily Summary

Daily Weather History Graph

Daily Weather History Graph

Search for Another Location

Airport or City:

Trip Planner

Search our weather history database for the weather conditions in past years. The results will help you decide how hot, cold, wet, or windy it might be!

Date:

Astronomy

Jul. 09, 2013 Rise Set
Actual Time 5:56 AM CDT 8:39 PM CDT
Civil Twilight 5:24 AM CDT 9:10 PM CDT
Nautical Twilight 4:45 AM CDT 9:49 PM CDT
Astronomical Twilight 4:01 AM CDT 10:34 PM CDT
Moon 7:19 AM CDT (7/9) 9:18 PM CDT (7/9)
Length of Visible Light 15h 45m
Length of Day
14h 43m
New Moon, 2% of the Moon is Illuminated
Jul 9
New Moon
Jul 15
First Quarter
Jul 22
Full
Jul 29
Last Quarter
Aug 6
New

Hourly Weather History & Observations

Time (CDT) Temp. Heat Index Dew Point Humidity Pressure Visibility Wind Dir Wind Speed Gust Speed Precip Events Conditions
12:53 AM 79.0 °F - 71.1 °F 77% 30.01 in 10.0 mi South 8.1 mph - N/A   Clear
1:53 AM 79.0 °F - 70.0 °F 74% 29.99 in 10.0 mi SSW 6.9 mph - N/A   Clear
2:53 AM 79.0 °F - 69.1 °F 72% 30.00 in 10.0 mi South 5.8 mph - N/A   Clear
3:53 AM 77.0 °F - 69.1 °F 76% 30.00 in 10.0 mi South 5.8 mph - N/A   Clear
4:53 AM 75.9 °F - 69.1 °F 79% 29.99 in 10.0 mi South 5.8 mph - N/A   Clear
5:53 AM 77.0 °F - 69.1 °F 76% 29.99 in 10.0 mi SSW 8.1 mph - N/A   Clear
6:53 AM 78.1 °F - 69.1 °F 74% 30.01 in 10.0 mi SSW 10.4 mph - N/A   Clear
7:53 AM 79.0 °F - 70.0 °F 74% 30.03 in 10.0 mi SSW 8.1 mph - N/A   Clear
8:53 AM 82.0 °F 86.7 °F 72.0 °F 71% 30.04 in 10.0 mi SSW 10.4 mph - N/A   Clear
9:53 AM 84.9 °F 91.4 °F 73.0 °F 67% 30.01 in 10.0 mi SSW 9.2 mph - N/A   Clear
10:53 AM 90.0 °F 99.0 °F 73.9 °F 59% 30.00 in 10.0 mi SSW 13.8 mph - N/A   Clear
11:53 AM 91.0 °F 98.2 °F 72.0 °F 53% 29.99 in 10.0 mi SSW 15.0 mph 23.0 mph N/A   Clear
12:53 PM 93.0 °F 101.9 °F 73.0 °F 52% 29.99 in 10.0 mi SSW 15.0 mph 21.9 mph N/A   Clear
1:53 PM 91.9 °F 100.7 °F 73.0 °F 54% 29.98 in 10.0 mi SSW 13.8 mph - N/A   Clear
2:53 PM 91.9 °F 99.5 °F 72.0 °F 52% 29.96 in 10.0 mi South 13.8 mph - N/A   Clear
3:53 PM 93.0 °F 100.7 °F 72.0 °F 50% 29.94 in 10.0 mi South 11.5 mph 19.6 mph N/A   Clear
4:53 PM 95.0 °F 102.5 °F 71.1 °F 46% 29.92 in 10.0 mi South 17.3 mph 21.9 mph N/A   Clear
5:53 PM 93.9 °F 100.8 °F 71.1 °F 47% 29.91 in 10.0 mi SSW 17.3 mph 21.9 mph N/A   Clear
6:53 PM 91.9 °F 99.5 °F 72.0 °F 52% 29.90 in 10.0 mi SSW 12.7 mph - N/A   Clear
7:53 PM 90.0 °F 96.9 °F 72.0 °F 55% 29.89 in 10.0 mi South 10.4 mph - N/A   Clear
8:53 PM 84.9 °F 90.7 °F 72.0 °F 65% 29.88 in 10.0 mi South 9.2 mph - N/A   Clear
9:53 PM 84.0 °F 89.0 °F 71.1 °F 65% 29.90 in 10.0 mi South 9.2 mph - N/A   Clear
10:53 PM 86.0 °F 91.5 °F 71.1 °F 61% 29.91 in 10.0 mi SSW 9.2 mph - N/A   Clear
11:53 PM 86.0 °F 90.7 °F 70.0 °F 59% 29.91 in 10.0 mi SSW 11.5 mph - N/A   Clear